This is the latest recevied weather packets stored in our database for station/object NO4D. If no packets are shown the sender has not sent any weather packets the latest 10 day(s).
| Time | Temp. | Humidity | Pressure | Rain* | Wind** | Luminosity | Snow |
|---|---|---|---|---|---|---|---|
| 1788139496 | 77° F | 88% | 765.8 mmHg | 0 in | - | 0 W/m² | - |
| 1788139196 | 77° F | 88% | 766 mmHg | 0 in | - | 0 W/m² | - |
| 1788138885 | 77° F | 88% | 766 mmHg | 0 in | - | 0 W/m² | - |
| 1788138582 | 77° F | 87% | 766 mmHg | 0 in | - | 0 W/m² | - |
| 1788138281 | 78° F | 87% | 766 mmHg | 0 in | - | 0 W/m² | - |
| 1788137976 | 78° F | 86% | 765.9 mmHg | 0 in | - | 0 W/m² | - |
| 1788137672 | 79° F | 85% | 765.9 mmHg | 0 in | - | 0 W/m² | - |
| 1788137371 | 79° F | 85% | 765.8 mmHg | 0 in | - | 0 W/m² | - |
| 1788137068 | 79° F | 85% | 765.7 mmHg | 0 in | - | 0 W/m² | - |
| 1788136763 | 79° F | 84% | 766 mmHg | 0 in | - | 0 W/m² | - |
| 1788136459 | 79° F | 83% | 765.7 mmHg | 0 in | - | 0 W/m² | - |
| 1788136154 | 80° F | 82% | 765.8 mmHg | 0 in | - | 0 W/m² | - |
| 1788135853 | 80° F | 81% | 765.7 mmHg | 0 in | - | 0 W/m² | - |
| 1788135548 | 80° F | 81% | 765.7 mmHg | 0 in | - | 0 W/m² | - |
| 1788135243 | 80° F | 82% | 765.5 mmHg | 0 in | - | 0 W/m² | - |
| 1788134941 | 80° F | 82% | 765.4 mmHg | 0 in | - | 0 W/m² | - |
| 1788134636 | 80° F | 81% | 765.4 mmHg | 0 in | - | 0 W/m² | - |
| 1788134334 | 80° F | 80% | 765.4 mmHg | 0 in | - | 1 W/m² | - |
| 1788134029 | 81° F | 79% | 765.4 mmHg | 0 in | - | 3 W/m² | - |
| 1788133725 | 81° F | 78% | 765.3 mmHg | 0 in | - | 6 W/m² | - |
| 1788133420 | 82° F | 77% | 765.4 mmHg | 0 in | - | 10 W/m² | - |
| 1788133116 | 82° F | 76% | 765.4 mmHg | 0 in | - | 13 W/m² | - |
| 1788132811 | 82° F | 76% | 765.3 mmHg | 0 in | - | 18 W/m² | - |
| 1788132507 | 82° F | 75% | 765.3 mmHg | 0 in | - | 22 W/m² | - |
| 1788132202 | 83° F | 75% | 765.3 mmHg | 0 in | - | 26 W/m² | - |
* Rain latest hour (hover to see other rain measurements)
** Current wind speed in m/s (hover to see current wind gust speed)